T = 1992 Mar. 21.2096 TT Peri. = 307.0178 Node = 288.7876 2000.0 q = 0.198641 AU Incl. = 95.5547
m1 = 10.9 + 5 logΔ + 14.0 log r [ ,-15] ( 〜1992年 3月 6日) m1 = 6.5 + 5 logΔ - 2 log r [-15, 0] (1992年 3月 6日〜1992年 3月21日) m1 = 22 + 5 logΔ + 20 log r [ 0, ] (1992年 3月21日〜 ) ※ 灰色の曲線は、m1 = 10.9 + 5 logΔ + 14.0 log r の光度曲線です。